Location: Alvediston
(51.0078°N, 2.0364°W)
Time: 18:25:14
(UTC+00:00)

NOSS 3-2 (A) - Pass Details

Date: 27 February 2020
Orbit: 807 x 1401 km, 63.4° (Epoch: 25 February)

Event Time Altitude Azimuth Distance (km) Brightness Sun altitude
Rises 20:45:59 0° 315° (NW) 3,950 7.7 -28.7°
Reaches altitude 10° 20:48:35 10° 311° (NW) 3,069 7.0 -29.1°
Maximum altitude 20:55:49 55° 236° (WSW) 1,496 4.5 -30.1°
Enters shadow 20:58:23 41° 186° (S) 1,816 4.6 -30.5°
